Flag for Poland Weather past 2 weeks in Katowice, Poland

Now
52 °F

Clear.


Feels Like: 52 °F
Forecast: 49 / 71 °F
Wind: 2 mph from North

Location: Katowice Airport

Current Time: Sep 18, 2014 at 1:44:40 AM

Latest Report: Sep 18, 2014 at 1:00 AM


Visibility: 10 mi

Pressure: 30.09 "Hg

Humidity: 82%

Dew point: 46 °F

Location of KatowiceLocation

Historic Weather in Katowice — Graph

°F

Katowice temperature yesterday

Maximum temperature yesterday: 70 °F (at 12:30 PM)
Minimum temperature yesterday: 50 °F (at 1:30 AM)
Average temperature yesterday: 59 °F

Past Weeks' High & Low Weather Summary

 TemperatureHumidityPressure
High79 °F (Sep 8, 3:00 PM)100% (Sep 3, 1:00 AM)30.21 "Hg (Sep 3, 1:00 AM)
Low46 °F (Sep 13, 5:30 AM)44% (Sep 10, 3:00 AM)29.92 "Hg (Sep 6, 4:00 PM)
Average62 °F81%30.05 "Hg
* Reported Midnight between Sep 2 and Sep 3 — Sep 18 12:30 AM, Katowice, Weather by CustomWeather, © 2014

Note: Actual official high and low records may vary slightly from our data, if they occured in-between our weather recording intervals... More about our weather records

Advertising

Katowice weather history for previous 24 hours

 ConditionsComfort  
Time TempWeatherWind HumidityBarometerVisibility
12:30 AM
Sep 18
54 °FClear.6 mph77%30.09 "Hg10 mi
12:00 AM54 °FClear.6 mph82%30.12 "Hg10 mi
11:30 PM
Sep 17
52 °FClear.7 mph82%30.12 "Hg10 mi
11:00 PM52 °FClear.7 mph88%30.12 "Hg10 mi
10:30 PM52 °FClear.7 mph88%30.12 "Hg10 mi
10:00 PM54 °FClear.5 mph82%30.12 "Hg10 mi
9:30 PM55 °FClear.5 mph82%30.12 "Hg10 mi
9:00 PM55 °FClear.6 mph82%30.12 "Hg10 mi
8:30 PM57 °FClear.7 mph77%30.12 "Hg10 mi
8:00 PM57 °FClear.7 mph82%30.12 "Hg10 mi
7:30 PM59 °FSunny.8 mph77%30.12 "Hg10 mi
7:00 PM61 °FSunny.7 mph72%30.12 "Hg10 mi
6:30 PM63 °FSunny.6 mph68%30.09 "Hg10 mi
6:00 PM66 °FSunny.7 mph60%30.12 "Hg10 mi
5:30 PM66 °FSunny.7 mph56%30.12 "Hg10 mi
5:00 PM68 °FSunny.9 mph53%30.12 "Hg10 mi
4:30 PM68 °FSunny.10 mph53%30.09 "Hg10 mi
4:00 PM68 °FSunny.12 mph53%30.09 "Hg10 mi
3:30 PM68 °FSunny.12 mph56%30.12 "Hg10 mi
3:00 PM70 °FSunny.12 mph53%30.09 "Hg10 mi
2:30 PM70 °FSunny.10 mph57%30.12 "Hg10 mi
2:00 PM70 °FSunny.12 mph53%30.12 "Hg10 mi
1:30 PM70 °FPassing clouds.9 mph57%30.12 "HgN/A
1:00 PM70 °FPassing clouds.8 mph57%30.12 "HgN/A
12:30 PM70 °FPassing clouds.8 mph46%30.12 "HgN/A
12:00 PM68 °FPassing clouds.7 mph49%30.12 "HgN/A
11:30 AM66 °FSunny.9 mph52%30.12 "Hg10 mi
11:00 AM66 °FSunny.9 mph56%30.15 "Hg10 mi
10:30 AM64 °FSunny.10 mph60%30.15 "Hg10 mi
10:00 AM63 °FPassing clouds.7 mph64%30.15 "HgN/A
9:30 AM61 °FSunny.10 mph68%30.15 "Hg10 mi
9:00 AM59 °FSunny.9 mph72%30.12 "Hg10 mi
8:30 AM55 °FSunny.7 mph77%30.12 "Hg10 mi
8:00 AM54 °FSunny.6 mph82%30.12 "Hg10 mi
7:30 AM52 °FSunny.8 mph88%30.12 "Hg10 mi
7:00 AM50 °FClear.6 mph88%30.12 "Hg10 mi
6:30 AM52 °FClear.8 mph82%30.12 "Hg10 mi
6:00 AM52 °FClear.9 mph88%30.12 "Hg10 mi
5:30 AM52 °FClear.8 mph88%30.12 "Hg10 mi
5:00 AM50 °FClear.6 mph88%30.12 "Hg10 mi
4:30 AM54 °FClear.8 mph82%30.12 "Hg10 mi
4:00 AM54 °FClear.10 mph82%30.12 "Hg10 mi
3:30 AM54 °FClear.7 mph82%30.12 "Hg10 mi
3:00 AM52 °FClear.8 mph88%30.12 "Hg10 mi
2:30 AM50 °FClear.7 mph94%30.12 "Hg10 mi
2:00 AM50 °FClear.7 mph94%30.12 "Hg10 mi
1:30 AM50 °FClear.7 mph94%30.12 "Hg10 mi
1:00 AM52 °FClear.6 mph94%30.12 "Hg10 mi
Weather by CustomWeather, © 2014

See weather overviewHow to use our weather pages